Terminal Aerodrome Forecast
Issued by NWS Portland, OR

Home | Current Version | Previous Version | Text Only | Print | Product List | Glossary On
Versions: 1 2 3 4 5 6 7 8 9 10 11 12 13 14 15 16 17 18 19 20 21 22 23 24 25 26 27 28 29 30 31 32 33 34 35 36 37 38 39 40 41 42 43 44 45 46 47 48 49 50
000
FTUS46 KPQR 250857 AAA
TAFPDX
TAF AMD
KPDX 250857Z 2509/2606 26007KT P6SM -SHRA SCT025 BKN035 OVC050
      TEMPO 2509/2513 BKN025 OVC050
     FM251300 24005KT P6SM VCSH BKN025 OVC040
     FM251900 VRB04KT P6SM SCT025 OVC045
     FM260500 VRB03KT P6SM BKN025 OVC035=

USA.gov is the U.S. government's official web portal to all federal, state and local government web resources and services.